This demonstration page uses our WeatherBlox Daily Observations layout. Learn more.

Left ArrowRight Arrow

39.01783, -85.05884

Hourly Observations for March 1, 2015

Temp ( °F °C ) Dew Point ( °F °C ) Humidity (%) Winds ( mph kmh ) Pressure ( in mb ) Visibility ( mi km ) Precip ( " mm )
12:52 am 00:52 Cloudy with Light Snow 24 -4.4 20 -6.7 84 84 E 6 9 30.49 1033 1 2 0.02 0.51
1:52 am 01:52 Cloudy with Light Snow 24 -4.4 21 -6.1 88 88 ESE 8 13 30.47 1032 2 2 0.03 0.76
2:01 am 02:01 Cloudy with Light Snow 25 -4 21 -6 86 86 ESE 5 7 30.53 1034 3 4 0.00 0.03
2:12 am 02:12 Cloudy with Light Snow 25 -4 21 -6 86 86 SE 6 9 30.53 1034 1 2 0.00 0.00
2:26 am 02:26 Cloudy with Light Snow 25 -4 21 -6 86 86 ESE 5 7 30.50 1033 3 5 0.00 0.00
2:35 am 02:35 Cloudy with Light Snow 25 -4 21 -6 86 86 E 5 7 30.50 1033 4 6 0.02 0.51
2:52 am 02:52 Cloudy with Light Snow 26 -3.3 22 -5.6 84 84 E 5 7 30.43 1031 5 8 0.02 0.51
3:52 am 03:52 Cloudy with Light Snow 26 -3.3 23 -5 88 88 SE 7 11 30.40 1030 5 8 0.00 0.03
4:52 am 04:52 Cloudy with Light Snow 27 -2.8 24 -4.4 89 89 S 5 7 30.41 1030 5 8 0.00 0.03
5:52 am 05:52 Cloudy with Light Snow 28 -2.2 24 -4.4 85 85 Calm 30.42 1030 4 6 0.00 0.03
6:52 am 06:52 Cloudy with Light Wintry Mix 29 -1.7 24 -4.4 82 82 SSE 5 7 30.39 1029 8 13 0.01 0.25
7:19 am 07:19 Cloudy 30 -1 23 -5 75 75 SSE 5 7 30.42 1030 9 14 0.00 0.03
7:52 am 07:52 Cloudy 30 -1.1 23 -5 75 75 S 5 7 30.38 1029 7 11 0.00 0.03
8:05 am 08:05 Cloudy with Light Snow 30 -1 25 -4 80 80 SSE 6 9 30.42 1030 3 4 0.00 0.03
8:21 am 08:21 Cloudy with Light Snow 30 -1 25 -4 80 80 SSE 7 11 30.42 1030 1 2 0.00 0.03
8:52 am 08:52 Cloudy with Light Snow 30 -1.1 25 -3.9 82 82 SSE 6 9 30.38 1029 4 6 0.00 0.03
9:43 am 09:43 Cloudy with Light Freezing Drizzle 32 0 27 -3 80 80 SSE 6 9 30.42 1030 5 8 0.02 0.51
9:52 am 09:52 Cloudy with Light Freezing Drizzle 32 0 27 -2.8 82 82 S 5 7 30.37 1028 5 8 0.02 0.51
10:16 am 10:16 Cloudy with Light Rain 34 1 27 -3 75 75 S 6 9 30.39 1029 7 11 0.00 0.00
10:52 am 10:52 Cloudy with Light Rain 34 1.1 28 -2.2 79 79 S 5 7 30.35 1028 7 11 0.00 0.03
11:52 am 11:52 Cloudy 34 1.1 29 -1.7 82 82 Calm 30.34 1027 7 11 0.00 0.03
12:52 pm 12:52 Cloudy 34 1.1 29 -1.7 82 82 W 5 7 30.32 1027 7 11 0.00 0.00
1:52 pm 13:52 Cloudy with Light Rain 34 1 30 -1 87 87 NW 6 9 30.33 1027 1 2 0.00 0.00
2:19 pm 14:19 Cloudy with Mist and Fog 34 1 30 -1 87 87 Calm 30.33 1027 1 1 0.01 0.25
2:52 pm 14:52 Cloudy with Mist and Fog 33 0.6 31 -0.6 92 92 W 3 6 30.29 1026 1 1 0.01 0.25
3:19 pm 15:19 Cloudy with Mist and Fog 34 1 30 -1 87 87 WSW 5 7 30.33 1027 2 3 0.00 0.00
3:52 pm 15:52 Cloudy with Mist and Fog 34 1.1 31 -0.6 89 89 WSW 3 6 30.28 1025 2 3 0.00 0.00
4:52 pm 16:52 Cloudy with Mist and Fog 34 1.1 31 -0.6 89 89 W 7 11 30.29 1026 2 3 0.00 0.03
5:15 pm 17:15 Cloudy with Mist and Fog 34 1 32 0 93 93 SW 5 7 30.33 1027 2 2 0.01 0.25
6:52 pm 18:52 Cloudy 28 -2 12 -11 51 51 E 9 15 30.56 1035 10 16 0.00 0.00
7:52 pm 19:52 Cloudy with Mist and Fog 34 1.1 32 0 92 92 W 6 9 30.29 1026 2 3 0.00 0.03
8:52 pm 20:52 Cloudy with Mist and Fog 33 0.6 31 -0.6 92 92 W 9 15 30.30 1026 4 6 0.00 0.00
9:52 pm 21:52 Cloudy with Mist and Fog 33 0.6 30 -1.1 89 89 WNW 8 13 30.30 1026 5 8 0.00 0.00
10:52 pm 22:52 Cloudy 33 0.6 29 -1.7 85 85 WNW 9 15 30.32 1027 7 11 0.00 0.00
11:52 pm 23:52 Cloudy 32 0 28 -2.2 85 85 WNW 13 20 30.35 1028 7 11 0.00 0.00

Powered by AerisWeather